Location: 5810 Zion Rd, Cleves, OH 45002, USA
(39.1922°N, 84.7113°W)
Time: 14:29:23
(UTC-05:00)

Envisat - Visible Passes

Search period start: 05 March 2021 00:00
Search period end: 15 March 2021 01:00
Orbit: 764 x 766 km, 98.1° (Epoch: 05 March)

Date Brightness Start Highest point End Pass type
(mag) Time Alt. Az. Time Alt. Az. Time Alt. Az.
05 Mar 5.2 05:29:32 10° NE 05:33:50 27° E 05:38:06 10° SSE visible
06 Mar 6.2 04:54:56 10° ENE 04:56:39 12° E 04:58:22 10° ESE visible
06 Mar 3.0 06:31:06 10° N 06:36:11 74° WNW 06:41:14 10° SSW visible
07 Mar 4.1 05:54:25 10° NNE 05:59:21 48° E 06:04:14 10° S visible
08 Mar 5.6 05:18:28 10° NE 05:22:19 21° E 05:26:08 10° SE visible
09 Mar 3.1 06:19:39 10° NNE 06:24:46 87° ESE 06:29:51 10° SSW visible
10 Mar 4.6 05:43:10 10° NNE 05:47:52 38° E 05:52:34 10° SSE visible
11 Mar 5.9 05:07:35 10° NE 05:10:47 17° E 05:13:58 10° SE visible
12 Mar 3.4 06:08:15 10° NNE 06:13:20 68° ESE 06:18:23 10° S visible
12 Mar 6.9 19:05:02 10° WSW 19:06:09 11° W 19:07:18 10° WNW visible
13 Mar 5.1 05:31:57 10° NE 05:36:23 29° E 05:40:47 10° SSE visible
14 Mar 6.1 05:57:00 10° ENE 05:59:14 13° E 06:01:27 10° ESE visible
